DFIRE EDJA-EDLW

Flight info

Callsign DFIRE
Flight time 1h 6m
Altitude 24000
Route LUPOL5B/06 LUPOL Z79 KUNOD L608 TEDGO/N0274F220 T164 KOVAN T163 ETASA Z724 KETEG Z3 ABUMO N850 GISEM Z505 ARPEG DCT ADEMI ADEMI2A
Aircraft PC12/L-SDFGRWY/S

Departure

Time 2026-04-29 13:55
Airport Memmingen Allgau Airport (EDJA)

Arrival

Time 2026-04-29 15:02
Airport Dortmund Airport (EDLW)
Time Latitude Longitude Altitude Speed Heading
2026-04-29 13:43 47.98663 10.23740 2073 ft 0 kts 329°
2026-04-29 13:54 47.98673 10.23693 2072 ft 10 kts 254°
2026-04-29 13:54 47.98683 10.23626 2074 ft 9 kts 319°
2026-04-29 13:54 47.98739 10.23591 2076 ft 4 kts 52°
2026-04-29 13:54 47.98743 10.23604 2076 ft 0 kts 62°
2026-04-29 13:55 47.98792 10.23727 2072 ft 42 kts 59°
2026-04-29 13:55 47.99054 10.24385 2107 ft 97 kts 59°
2026-04-29 13:55 47.99412 10.25316 2638 ft 106 kts 57°
2026-04-29 13:55 47.99823 10.26371 3183 ft 125 kts 61°
2026-04-29 13:56 48.00226 10.27423 4173 ft 113 kts 62°
2026-04-29 13:56 48.00632 10.28449 4925 ft 120 kts 61°
2026-04-29 13:56 48.01082 10.29577 5646 ft 127 kts 61°
2026-04-29 13:56 48.01541 10.30721 6515 ft 129 kts 61°
2026-04-29 13:57 48.02005 10.31877 7329 ft 131 kts 60°
2026-04-29 13:57 48.02485 10.33068 8115 ft 135 kts 60°
2026-04-29 13:57 48.02977 10.34290 8914 ft 141 kts 59°
2026-04-29 13:57 48.03535 10.35520 9736 ft 143 kts 43°
2026-04-29 13:58 48.04433 10.36131 10507 ft 148 kts
2026-04-29 13:58 48.05440 10.35864 11309 ft 152 kts 341°
2026-04-29 13:58 48.06432 10.35230 12054 ft 156 kts 340°
2026-04-29 13:58 48.07442 10.34604 12816 ft 162 kts 339°
2026-04-29 13:59 48.08514 10.33921 13579 ft 163 kts 335°
2026-04-29 13:59 48.09422 10.32976 14464 ft 161 kts 323°
2026-04-29 13:59 48.10306 10.31947 15237 ft 158 kts 325°
2026-04-29 13:59 48.11199 10.30978 15995 ft 161 kts 325°
2026-04-29 14:00 48.12108 10.30006 16798 ft 158 kts 325°
2026-04-29 14:00 48.13010 10.29042 17551 ft 160 kts 324°
2026-04-29 14:00 48.13912 10.28080 18341 ft 160 kts 323°
2026-04-29 14:00 48.14831 10.27099 18971 ft 165 kts 323°
2026-04-29 14:01 48.15769 10.26097 19646 ft 165 kts 323°
2026-04-29 14:01 48.16710 10.25092 20330 ft 167 kts 323°
2026-04-29 14:01 48.17667 10.24068 20972 ft 171 kts 323°
2026-04-29 14:01 48.18629 10.23039 21644 ft 172 kts 323°
2026-04-29 14:02 48.19605 10.21995 22339 ft 173 kts 323°
2026-04-29 14:02 48.20587 10.20944 23001 ft 175 kts 324°
2026-04-29 14:02 48.21588 10.19872 23657 ft 177 kts 324°
2026-04-29 14:02 48.22615 10.18772 24089 ft 188 kts 324°
2026-04-29 14:03 48.23745 10.17560 24191 ft 213 kts 324°
2026-04-29 14:03 48.25017 10.16195 24200 ft 235 kts 324°
2026-04-29 14:03 48.26389 10.14723 24201 ft 249 kts 324°
2026-04-29 14:03 48.27827 10.13177 24195 ft 258 kts 324°
2026-04-29 14:04 48.29289 10.11605 24192 ft 258 kts 324°
2026-04-29 14:04 48.30742 10.10043 24197 ft 256 kts 324°
2026-04-29 14:04 48.32185 10.08489 24196 ft 255 kts 324°
2026-04-29 14:04 48.33622 10.06940 24196 ft 254 kts 324°
2026-04-29 14:05 48.35058 10.05392 24190 ft 254 kts 324°
2026-04-29 14:05 48.36491 10.03848 24195 ft 253 kts 324°
2026-04-29 14:05 48.37924 10.02299 24188 ft 253 kts 324°
2026-04-29 14:05 48.39352 10.00756 24193 ft 253 kts 324°
2026-04-29 14:06 48.40786 9.99207 24188 ft 253 kts 324°
2026-04-29 14:06 48.42214 9.97661 24193 ft 253 kts 324°
2026-04-29 14:06 48.43645 9.96111 24193 ft 253 kts 324°
2026-04-29 14:06 48.45074 9.94563 24185 ft 253 kts 324°
2026-04-29 14:07 48.46502 9.93015 24182 ft 253 kts 324°
2026-04-29 14:07 48.47932 9.91463 24179 ft 253 kts 324°
2026-04-29 14:07 48.49359 9.89914 24189 ft 252 kts 324°
2026-04-29 14:07 48.50781 9.88369 24182 ft 252 kts 324°
2026-04-29 14:08 48.52203 9.86823 24186 ft 252 kts 324°
2026-04-29 14:08 48.53627 9.85273 24187 ft 252 kts 324°
2026-04-29 14:08 48.55051 9.83723 24187 ft 252 kts 324°
2026-04-29 14:08 48.56478 9.82168 24186 ft 253 kts 324°
2026-04-29 14:09 48.57905 9.80612 24183 ft 253 kts 324°
2026-04-29 14:09 48.59333 9.79053 24188 ft 253 kts 324°
2026-04-29 14:09 48.60759 9.77497 24187 ft 253 kts 324°
2026-04-29 14:09 48.62165 9.75960 24188 ft 253 kts 324°
2026-04-29 14:10 48.63607 9.74383 24179 ft 253 kts 324°
2026-04-29 14:10 48.65030 9.72826 24180 ft 252 kts 324°
2026-04-29 14:10 48.66435 9.71287 24179 ft 253 kts 324°
2026-04-29 14:10 48.67861 9.69724 24190 ft 253 kts 324°
2026-04-29 14:11 48.69294 9.68153 24191 ft 256 kts 325°
2026-04-29 14:11 48.70745 9.66561 24192 ft 259 kts 324°
2026-04-29 14:11 48.72205 9.64958 24195 ft 259 kts 325°
2026-04-29 14:11 48.73656 9.63362 24193 ft 257 kts 325°
2026-04-29 14:12 48.75100 9.61774 24173 ft 256 kts 325°
2026-04-29 14:12 48.76538 9.60192 24173 ft 256 kts 326°
2026-04-29 14:12 48.77980 9.58605 24178 ft 256 kts 325°
2026-04-29 14:12 48.79425 9.57010 24181 ft 257 kts 325°
2026-04-29 14:13 48.80873 9.55414 24188 ft 258 kts 325°
2026-04-29 14:13 48.82326 9.53809 24187 ft 258 kts 325°
2026-04-29 14:13 48.83780 9.52204 24191 ft 259 kts 325°
2026-04-29 14:13 48.85238 9.50590 24194 ft 259 kts 325°
2026-04-29 14:14 48.86698 9.48976 24195 ft 259 kts 325°
2026-04-29 14:14 48.88153 9.47367 24190 ft 258 kts 325°
2026-04-29 14:14 48.89600 9.45762 24195 ft 257 kts 325°
2026-04-29 14:14 48.91043 9.44162 24195 ft 256 kts 325°
2026-04-29 14:15 48.92480 9.42567 24196 ft 256 kts 327°
2026-04-29 14:15 48.93939 9.40949 24196 ft 262 kts 327°
2026-04-29 14:15 48.95421 9.39304 24199 ft 265 kts 327°
2026-04-29 14:15 48.96903 9.37654 24209 ft 264 kts 327°
2026-04-29 14:16 48.98388 9.36000 24196 ft 264 kts 327°
2026-04-29 14:16 48.99868 9.34351 24194 ft 264 kts 327°
2026-04-29 14:16 49.01346 9.32705 24197 ft 263 kts 327°
2026-04-29 14:16 49.02819 9.31062 24195 ft 263 kts 327°
2026-04-29 14:17 49.04294 9.29415 24201 ft 262 kts 327°
2026-04-29 14:17 49.05765 9.27772 24188 ft 262 kts 328°
2026-04-29 14:17 49.07241 9.26123 24196 ft 263 kts 328°
2026-04-29 14:17 49.08717 9.24471 24199 ft 264 kts 328°
2026-04-29 14:18 49.10200 9.22811 24197 ft 264 kts 328°
2026-04-29 14:18 49.11680 9.21153 24199 ft 264 kts 327°
2026-04-29 14:18 49.13165 9.19487 24196 ft 265 kts 327°
2026-04-29 14:18 49.14648 9.17823 24196 ft 264 kts 328°
2026-04-29 14:19 49.16130 9.16159 24212 ft 264 kts 327°
2026-04-29 14:19 49.17612 9.14493 24207 ft 264 kts 329°
2026-04-29 14:19 49.19124 9.12930 24205 ft 261 kts 337°
2026-04-29 14:19 49.20794 9.11909 24206 ft 257 kts 345°
2026-04-29 14:20 49.22480 9.11006 24204 ft 257 kts 345°
2026-04-29 14:20 49.24168 9.10083 24206 ft 258 kts 345°
2026-04-29 14:20 49.25832 9.09174 24211 ft 258 kts 345°
2026-04-29 14:20 49.27523 9.08255 24212 ft 258 kts 345°
2026-04-29 14:21 49.29214 9.07336 24213 ft 258 kts 345°
2026-04-29 14:21 49.30903 9.06416 24216 ft 258 kts 345°
2026-04-29 14:21 49.32591 9.05496 24214 ft 258 kts 345°
2026-04-29 14:21 49.34278 9.04576 24212 ft 258 kts 345°
2026-04-29 14:22 49.35966 9.03654 24222 ft 258 kts 345°
2026-04-29 14:22 49.37658 9.02731 24223 ft 258 kts 345°
2026-04-29 14:22 49.39371 9.01794 24224 ft 258 kts 345°
2026-04-29 14:22 49.41036 9.00882 24219 ft 257 kts 346°
2026-04-29 14:23 49.42717 8.99963 24219 ft 256 kts 346°
2026-04-29 14:23 49.44399 8.99070 24226 ft 254 kts 349°
2026-04-29 14:23 49.46129 8.98735 24224 ft 249 kts
2026-04-29 14:23 49.47844 8.98936 24225 ft 247 kts
2026-04-29 14:24 49.49557 8.99188 24224 ft 247 kts
2026-04-29 14:24 49.51271 8.99422 24225 ft 247 kts
2026-04-29 14:24 49.52982 8.99657 24225 ft 247 kts
2026-04-29 14:24 49.54141 8.99816 24235 ft 247 kts
2026-04-29 14:25 49.55853 9.00052 24232 ft 247 kts
2026-04-29 14:25 49.57565 9.00288 24232 ft 247 kts
2026-04-29 14:25 49.59254 9.00521 24224 ft 247 kts
2026-04-29 14:25 49.60966 9.00757 24226 ft 247 kts
2026-04-29 14:26 49.62681 9.00995 24232 ft 247 kts
2026-04-29 14:26 49.64413 9.01244 24233 ft 247 kts
2026-04-29 14:26 49.66125 9.01492 24233 ft 247 kts
2026-04-29 14:26 49.67836 9.01739 24232 ft 247 kts
2026-04-29 14:27 49.69554 9.01985 24236 ft 248 kts
2026-04-29 14:27 49.71272 9.02231 24242 ft 248 kts
2026-04-29 14:27 49.72989 9.02479 24242 ft 248 kts
2026-04-29 14:28 49.76426 9.02973 24241 ft 248 kts
2026-04-29 14:28 49.78118 9.03217 24244 ft 248 kts
2026-04-29 14:28 49.79834 9.03465 24250 ft 248 kts
2026-04-29 14:28 49.81572 9.03716 24251 ft 248 kts
2026-04-29 14:29 49.83267 9.03961 24248 ft 248 kts
2026-04-29 14:29 49.84982 9.04208 24248 ft 248 kts
2026-04-29 14:29 49.86701 9.04457 24248 ft 247 kts
2026-04-29 14:29 49.88420 9.04339 24246 ft 252 kts 355°
2026-04-29 14:30 49.90135 9.03706 24252 ft 253 kts 351°
2026-04-29 14:30 49.91839 9.03023 24253 ft 252 kts 353°
2026-04-29 14:30 49.93555 9.02495 24255 ft 251 kts 355°
2026-04-29 14:30 49.95275 9.02039 24254 ft 251 kts 355°
2026-04-29 14:31 49.96994 9.01553 24257 ft 251 kts 355°
2026-04-29 14:31 49.98711 9.01048 24262 ft 251 kts 355°
2026-04-29 14:31 50.00429 9.00544 24262 ft 251 kts 355°
2026-04-29 14:31 50.02147 9.00046 24263 ft 251 kts 355°
2026-04-29 14:32 50.03865 8.99546 24260 ft 251 kts 355°
2026-04-29 14:32 50.05582 8.99046 24260 ft 251 kts 355°
2026-04-29 14:32 50.07298 8.98546 24263 ft 251 kts 355°
2026-04-29 14:32 50.09016 8.98045 24264 ft 251 kts 355°
2026-04-29 14:33 50.10731 8.97544 24263 ft 250 kts 355°
2026-04-29 14:33 50.12443 8.97045 24263 ft 250 kts 355°
2026-04-29 14:33 50.14157 8.96543 24263 ft 250 kts 355°
2026-04-29 14:33 50.15866 8.96043 24263 ft 250 kts 355°
2026-04-29 14:34 50.17576 8.95543 24270 ft 250 kts 355°
2026-04-29 14:34 50.19283 8.95043 24271 ft 250 kts 355°
2026-04-29 14:34 50.20990 8.94542 24272 ft 250 kts 355°
2026-04-29 14:34 50.22702 8.94041 24272 ft 250 kts 355°
2026-04-29 14:35 50.24408 8.93540 24272 ft 250 kts 355°
2026-04-29 14:35 50.26120 8.93037 24281 ft 250 kts 355°
2026-04-29 14:35 50.27825 8.92535 24283 ft 250 kts 355°
2026-04-29 14:35 50.29536 8.92032 24283 ft 250 kts 355°
2026-04-29 14:36 50.31242 8.91530 24282 ft 250 kts 355°
2026-04-29 14:36 50.32950 8.91026 24283 ft 249 kts 355°
2026-04-29 14:36 50.34651 8.90524 24283 ft 249 kts 355°
2026-04-29 14:36 50.36350 8.90023 24290 ft 248 kts 355°
2026-04-29 14:37 50.38049 8.89522 24293 ft 248 kts 355°
2026-04-29 14:37 50.39745 8.89020 24290 ft 248 kts 355°
2026-04-29 14:37 50.41444 8.88518 24290 ft 248 kts 355°
2026-04-29 14:37 50.43141 8.88016 24290 ft 248 kts 355°
2026-04-29 14:38 50.44839 8.87512 24293 ft 248 kts 355°
2026-04-29 14:38 50.46537 8.87009 24293 ft 248 kts 355°
2026-04-29 14:38 50.48211 8.86513 24293 ft 248 kts 355°
2026-04-29 14:38 50.49910 8.86009 24292 ft 248 kts 355°
2026-04-29 14:39 50.51607 8.85505 24292 ft 248 kts 355°
2026-04-29 14:39 50.53301 8.85001 24292 ft 248 kts 355°
2026-04-29 14:39 50.54997 8.84496 24307 ft 248 kts 355°
2026-04-29 14:39 50.56692 8.83992 24307 ft 248 kts 355°
2026-04-29 14:40 50.58388 8.83487 24307 ft 248 kts 355°
2026-04-29 14:40 50.60118 8.82976 24018 ft 259 kts 355°
2026-04-29 14:40 50.61894 8.82442 23632 ft 258 kts 354°
2026-04-29 14:40 50.63595 8.81513 23215 ft 262 kts 340°
2026-04-29 14:41 50.65122 8.79881 22810 ft 269 kts 327°
2026-04-29 14:41 50.66544 8.77961 22413 ft 271 kts 326°
2026-04-29 14:41 50.67986 8.76035 22022 ft 272 kts 327°
2026-04-29 14:41 50.69434 8.74106 21637 ft 273 kts 326°
2026-04-29 14:42 50.70881 8.72173 21257 ft 273 kts 326°
2026-04-29 14:42 50.72332 8.70230 20880 ft 273 kts 326°
2026-04-29 14:42 50.73782 8.68288 20510 ft 274 kts 326°
2026-04-29 14:42 50.75240 8.66334 20150 ft 275 kts 326°
2026-04-29 14:43 50.76668 8.64326 19782 ft 277 kts 320°
2026-04-29 14:43 50.77946 8.62012 19417 ft 281 kts 315°
2026-04-29 14:43 50.79200 8.59648 19064 ft 280 kts 317°
2026-04-29 14:43 50.80497 8.57411 18715 ft 279 kts 319°
2026-04-29 14:44 50.81828 8.55168 18329 ft 280 kts 318°
2026-04-29 14:44 50.83165 8.52861 17926 ft 282 kts 317°
2026-04-29 14:44 50.84485 8.50557 17540 ft 283 kts 317°
2026-04-29 14:44 50.85810 8.48252 17150 ft 284 kts 317°
2026-04-29 14:45 50.87144 8.45941 16744 ft 285 kts 317°
2026-04-29 14:45 50.88488 8.43607 16358 ft 288 kts 317°
2026-04-29 14:45 50.89820 8.41286 15988 ft 288 kts 317°
2026-04-29 14:45 50.91158 8.38950 15607 ft 278 kts 317°
2026-04-29 14:46 50.92447 8.36703 15240 ft 274 kts 317°
2026-04-29 14:46 50.93724 8.34481 14866 ft 272 kts 317°
2026-04-29 14:46 50.94994 8.32265 14503 ft 271 kts 317°
2026-04-29 14:46 50.96239 8.30089 14148 ft 270 kts 317°
2026-04-29 14:47 50.97496 8.27889 13752 ft 269 kts 317°
2026-04-29 14:47 50.98746 8.25701 13353 ft 267 kts 317°
2026-04-29 14:47 50.99990 8.23522 12962 ft 266 kts 317°
2026-04-29 14:47 51.01230 8.21349 12575 ft 265 kts 317°
2026-04-29 14:48 51.02463 8.19184 12182 ft 264 kts 317°
2026-04-29 14:48 51.03692 8.17026 11813 ft 262 kts 317°
2026-04-29 14:48 51.04914 8.14878 11448 ft 261 kts 317°
2026-04-29 14:48 51.06120 8.12752 11190 ft 258 kts 317°
2026-04-29 14:49 51.07317 8.10642 10951 ft 252 kts 318°
2026-04-29 14:49 51.08470 8.08606 10701 ft 244 kts 317°
2026-04-29 14:49 51.09603 8.06612 10511 ft 241 kts 317°
2026-04-29 14:49 51.10736 8.04617 10391 ft 245 kts 317°
2026-04-29 14:50 51.11878 8.02603 10273 ft 245 kts 317°
2026-04-29 14:50 51.13020 8.00580 10148 ft 246 kts 317°
2026-04-29 14:50 51.14161 7.98560 10006 ft 246 kts 316°
2026-04-29 14:50 51.15304 7.96536 9873 ft 245 kts 316°
2026-04-29 14:51 51.16445 7.94514 9752 ft 245 kts 316°
2026-04-29 14:51 51.17585 7.92491 9618 ft 245 kts 316°
2026-04-29 14:51 51.18722 7.90474 9486 ft 245 kts 316°
2026-04-29 14:51 51.19860 7.88451 9353 ft 245 kts 317°
2026-04-29 14:52 51.20979 7.86462 9224 ft 245 kts 316°
2026-04-29 14:52 51.22113 7.84444 9090 ft 244 kts 316°
2026-04-29 14:52 51.23249 7.82421 8956 ft 245 kts 316°
2026-04-29 14:52 51.24383 7.80399 8824 ft 245 kts 317°
2026-04-29 14:53 51.25518 7.78377 8693 ft 245 kts 316°
2026-04-29 14:53 51.26651 7.76353 8569 ft 244 kts 316°
2026-04-29 14:53 51.27783 7.74330 8442 ft 244 kts 316°
2026-04-29 14:53 51.28924 7.72291 8117 ft 246 kts 316°
2026-04-29 14:54 51.30050 7.70272 7744 ft 242 kts 316°
2026-04-29 14:54 51.31171 7.68267 7368 ft 241 kts 316°
2026-04-29 14:54 51.32285 7.66273 7002 ft 242 kts 316°
2026-04-29 14:54 51.33411 7.64254 6610 ft 245 kts 316°
2026-04-29 14:55 51.34547 7.62212 6223 ft 247 kts 316°
2026-04-29 14:55 51.35678 7.60178 5837 ft 243 kts 316°
2026-04-29 14:55 51.36800 7.58161 5458 ft 240 kts 315°
2026-04-29 14:55 51.37867 7.56236 5084 ft 226 kts 316°
2026-04-29 14:56 51.38902 7.54372 4713 ft 222 kts 316°
2026-04-29 14:56 51.39917 7.52544 4428 ft 216 kts 316°
2026-04-29 14:56 51.40914 7.50749 4121 ft 217 kts 316°
2026-04-29 14:56 51.41906 7.48958 3682 ft 212 kts 317°
2026-04-29 14:57 51.42853 7.47242 2949 ft 198 kts 318°
2026-04-29 14:57 51.43726 7.45659 2340 ft 184 kts 319°
2026-04-29 14:57 51.44702 7.44565 2392 ft 169 kts 355°
2026-04-29 14:57 51.45818 7.44883 2404 ft 168 kts 39°
2026-04-29 14:58 51.46523 7.46302 2410 ft 160 kts 60°
2026-04-29 14:58 51.47102 7.47830 2268 ft 156 kts 60°
2026-04-29 14:58 51.47631 7.49296 2077 ft 151 kts 61°
2026-04-29 14:58 51.48127 7.50709 1854 ft 137 kts 62°
2026-04-29 14:59 51.48586 7.52013 1663 ft 126 kts 62°
2026-04-29 14:59 51.49007 7.53205 1500 ft 119 kts 62°
2026-04-29 14:59 51.49397 7.54311 1338 ft 107 kts 62°
2026-04-29 14:59 51.49755 7.55332 1197 ft 105 kts 63°
2026-04-29 15:00 51.50070 7.56210 1039 ft 75 kts 60°
2026-04-29 15:00 51.50350 7.56985 913 ft 85 kts 62°
2026-04-29 15:00 51.50630 7.57808 870 ft 84 kts 59°
2026-04-29 15:00 51.50921 7.58623 721 ft 83 kts 59°
2026-04-29 15:01 51.51178 7.59364 628 ft 71 kts 61°
2026-04-29 15:01 51.51428 7.60069 528 ft 71 kts 59°
2026-04-29 15:01 51.51658 7.60725 418 ft 65 kts 60°
2026-04-29 15:01 51.51857 7.61289 415 ft 51 kts 61°
2026-04-29 15:02 51.52015 7.61737 412 ft 39 kts 60°
2026-04-29 15:02 51.52116 7.62026 414 ft 24 kts 59°
2026-04-29 15:02 51.52182 7.62296 415 ft 14 kts 111°
2026-04-29 15:02 51.52108 7.62384 414 ft 6 kts 151°
2026-04-29 15:03 51.52049 7.62379 412 ft 15 kts 239°
2026-04-29 15:03 51.51969 7.62149 414 ft 31 kts 239°
2026-04-29 15:03 51.51871 7.61876 416 ft 26 kts 241°
2026-04-29 15:03 51.51782 7.61624 424 ft 21 kts 238°
2026-04-29 15:04 51.51709 7.61414 423 ft 25 kts 240°
2026-04-29 15:04 51.51627 7.61174 422 ft 19 kts 245°
2026-04-29 15:04 51.51557 7.61047 429 ft 10 kts 166°
2026-04-29 15:04 51.51484 7.60984 430 ft 20 kts 239°
2026-04-29 15:05 51.51401 7.60751 427 ft 20 kts 232°
2026-04-29 15:05 51.51348 7.60591 435 ft 23 kts 239°
2026-04-29 15:05 51.51229 7.60257 439 ft 19 kts 240°
2026-04-29 15:05 51.51181 7.60159 443 ft 15 kts 185°
2026-04-29 15:06 51.51188 7.60285 445 ft 19 kts 57°
2026-04-29 15:06 51.51227 7.60412 437 ft 12 kts 97°
2026-04-29 15:06 51.51218 7.60469 437 ft 1 kts 104°
2026-04-29 15:06 51.51218 7.60470 438 ft 0 kts 104°